EW7806 Weather Reports


Display with metric or nautical units.
time (UTC)temp
F
wind
direction
speed
MPH
gust
MPH
rain 1hr
in
rain 24hr
in
rain mn
in
humidity
%
barometer
mb
20260510153805 56 87 0.0 3.0 0.00 0.00 0.00 68 1014.3
20260510153306 56 112 0.0 5.0 0.00 0.00 0.00 71 1014.4
20260510152805 56 4 0.0 4.0 0.00 0.00 0.00 71 1014.4
20260510152307 56 102 0.0 4.0 0.00 0.00 0.00 71 1014.4
20260510151302 56 356 0.0 4.0 0.00 0.00 0.00 71 1014.4
20260510150803 56 243 0.0 3.0 0.00 0.00 0.00 71 1014.5
20260510150302 56 126 0.0 3.0 0.00 0.00 0.00 71 1014.7
20260510145802 56 137 0.0 3.0 0.00 0.00 0.00 71 1014.6
20260510145305 56 140 1.0 3.0 0.00 0.00 0.00 70 1014.7
20260510144803 56 291 0.0 3.0 0.00 0.00 0.00 70 1014.7
20260510144234 56 276 0.0 6.0 0.00 0.00 0.00 70 1014.7
20260510143733 56 347 0.0 6.0 0.00 0.00 0.00 69 1014.8
20260510143232 57 104 0.0 6.0 0.00 0.00 0.00 70 1014.8
20260510142703 57 253 1.0 6.0 0.00 0.00 0.00 69 1014.8
20260510142206 57 155 1.0 4.0 0.00 0.00 0.00 69 1014.9
20260510141703 57 68 0.0 3.0 0.00 0.00 0.00 68 1014.8
20260510141204 58 347 0.0 3.0 0.00 0.00 0.00 69 1014.8
20260510140204 58 306 0.0 3.0 0.00 0.00 0.00 68 1015.0
20260510135701 58 76 0.0 4.0 0.00 0.00 0.00 70 1014.9
20260510135204 58 112 0.0 4.0 0.00 0.00 0.00 69 1014.9
20260510133636 58 193 1.0 5.0 0.00 0.00 0.00 68 1015.1
20260510133140 58 278 1.0 5.0 0.00 0.00 0.00 68 1015.1
20260510132620 58 67 1.0 4.0 0.00 0.00 0.00 67 1015.1
20260510132113 59 211 0.0 4.0 0.00 0.00 0.00 67 1015.1
20260510131616 59 221 0.0 4.0 0.00 0.00 0.00 67 1015.1
20260510131111 59 242 0.0 5.0 0.00 0.00 0.00 68 1015.2
20260510130603 59 89 1.0 5.0 0.00 0.00 0.00 69 1015.2
20260510130108 59 197 1.0 4.0 0.00 0.00 0.00 68 1015.3
20260510125544 59 282 0.0 4.0 0.00 0.00 0.00 66 1015.4
20260510124539 60 252 0.0 4.0 0.00 0.00 0.00 66 1015.4
20260510124038 60 48 0.0 3.0 0.00 0.00 0.00 66 1015.6
20260510123534 60 246 0.0 4.0 0.00 0.00 0.00 65 1015.5
20260510123049 60 293 0.0 4.0 0.00 0.00 0.00 65 1015.4
20260510122534 60 49 0.0 3.0 0.00 0.00 0.00 64 1015.6
20260510122043 60 6 0.0 4.0 0.00 0.00 0.00 66 1015.8
20260510121519 60 0 1.0 5.0 0.00 0.00 0.00 66 1015.8
20260510121022 60 45 1.0 5.0 0.00 0.00 0.00 65 1015.8
20260510120506 60 155 1.0 3.0 0.00 0.00 0.00 68 1015.8
20260510120023 60 201 0.0 5.0 0.00 0.00 0.00 68 1015.9
20260510115521 59 166 1.0 5.0 0.00 0.00 0.00 67 1016.0
20260510115025 59 248 0.0 5.0 0.00 0.00 0.00 65 1016.0
20260510114022 60 30 0.0 3.0 0.00 0.00 0.00 66 1016.0
20260510113522 59 41 0.0 2.0 0.00 0.00 0.00 68 1016.0
20260510112447 59 304 0.0 3.0 0.00 0.00 0.00 68 1016.1
20260510110930 60 219 1.0 4.0 0.00 0.00 0.00 67 1016.3
20260510110434 61 281 0.0 4.0 0.00 0.00 0.00 66 1016.3
20260510105907 61 62 0.0 4.0 0.00 0.00 0.00 66 1016.3
20260510105408 61 232 0.0 4.0 0.00 0.00 0.00 68 1016.2
20260510104334 61 140 0.0 3.0 0.00 0.00 0.00 67 1016.3
20260510103334 61 71 0.0 2.0 0.00 0.00 0.00 66 1016.4
20260510102814 61 195 0.0 4.0 0.00 0.00 0.00 68 1016.3
20260510102309 61 18 0.0 4.0 0.00 0.00 0.00 66 1016.2
20260510100801 60 120 0.0 3.0 0.00 0.00 0.00 67 1016.2
20260510100305 60 220 0.0 2.0 0.00 0.00 0.00 69 1016.3
20260510095746 60 34 0.0 3.0 0.00 0.00 0.00 69 1016.4
20260510095249 60 231 0.0 3.0 0.00 0.00 0.00 69 1016.3
20260510094743 60 352 0.0 2.0 0.00 0.00 0.00 68 1016.3
20260510094230 60 75 0.0 4.0 0.00 0.00 0.00 69 1016.4
20260510093732 60 238 0.0 4.0 0.00 0.00 0.00 70 1016.3
20260510092729 59 279 0.0 3.0 0.00 0.00 0.00 71 1016.5
20260510092231 58 46 0.0 2.0 0.00 0.00 0.00 73 1016.5
20260510091732 58 88 0.0 3.0 0.00 0.00 0.00 73 1016.5
20260510091229 58 317 0.0 3.0 0.00 0.00 0.00 73 1016.6
20260510090734 58 133 0.0 3.0 0.00 0.00 0.00 73 1016.6
20260510090230 58 236 0.0 5.0 0.00 0.00 0.00 72 1016.7
20260510085703 58 258 0.0 5.0 0.00 0.00 0.00 73 1016.7
20260510085205 58 36 0.0 6.0 0.00 0.00 0.00 72 1016.6
20260510084704 58 264 0.0 6.0 0.00 0.00 0.00 73 1016.7
20260510084200 58 231 0.0 3.0 0.00 0.00 0.00 71 1016.7
20260510083703 58 32 0.0 2.0 0.00 0.00 0.00 73 1016.6
20260510083203 58 49 0.0 2.0 0.00 0.00 0.00 73 1016.6
20260510082700 58 93 0.0 2.0 0.00 0.00 0.00 74 1016.6
20260510081704 57 32 0.0 4.0 0.00 0.00 0.00 76 1016.6
20260510081132 57 314 0.0 1.0 0.00 0.00 0.00 77 1016.6
20260510080130 57 235 0.0 3.0 0.00 0.00 0.00 76 1016.7
20260510075612 57 173 0.0 1.0 0.00 0.00 0.00 78 1016.7
20260510075105 57 48 0.0 2.0 0.00 0.00 0.00 79 1016.7
20260510074606 57 174 0.0 2.0 0.00 0.00 0.00 78 1016.7
20260510074105 57 203 0.0 2.0 0.00 0.00 0.00 79 1016.6
20260510073108 56 115 0.0 2.0 0.00 0.00 0.00 80 1016.7
20260510072103 55 330 0.0 1.0 0.00 0.00 0.00 81 1016.8
20260510071609 55 157 0.0 2.0 0.00 0.00 0.00 81 1016.7
20260510071048 55 240 0.0 2.0 0.00 0.00 0.00 82 1016.7
20260510070534 55 136 0.0 1.0 0.00 0.00 0.00 83 1016.7
20260510070038 55 143 0.0 3.0 0.00 0.00 0.00 83 1016.7
20260510065530 55 230 0.0 3.0 0.00 0.00 0.00 83 1016.6
20260510065031 55 250 0.0 5.0 0.00 0.00 0.00 84 1016.5
20260510064513 55 250 0.0 5.0 0.00 0.00 0.00 84 1016.5
20260510064025 55 72 0.0 2.0 0.00 0.00 0.00 85 1016.4
20260510063523 54 78 0.0 2.0 0.00 0.00 0.00 87 1016.5
20260510063024 54 106 0.0 2.0 0.00 0.00 0.00 86 1016.5
20260510062017 54 323 0.0 2.0 0.00 0.00 0.00 87 1016.5
20260510061520 54 70 0.0 2.0 0.00 0.00 0.00 87 1016.5
20260510061001 54 321 0.0 1.0 0.00 0.00 0.00 88 1016.5
20260510060457 53 70 0.0 1.0 0.00 0.00 0.00 88 1016.5
20260510055957 53 115 0.0 1.0 0.00 0.00 0.00 88 1016.5
20260510055455 53 246 0.0 1.0 0.00 0.00 0.00 89 1016.6
20260510054948 53 254 0.0 0.0 0.00 0.00 0.00 89 1016.5
20260510054439 53 262 0.0 1.0 0.00 0.00 0.00 89 1016.4
20260510053933 52 248 0.0 1.0 0.00 0.00 0.00 89 1016.4
20260510053433 52 63 0.0 1.0 0.00 0.00 0.00 88 1016.3
20260510052927 52 67 0.0 1.0 0.00 0.00 0.00 88 1016.3
20260510051919 51 34 0.0 3.0 0.00 0.00 0.00 88 1016.3
20260510051411 51 77 0.0 4.0 0.00 0.00 0.00 88 1016.3
20260510050909 50 83 0.0 4.0 0.00 0.00 0.00 88 1016.3
20260510050411 50 82 0.0 1.0 0.00 0.00 0.00 88 1016.4
20260510045904 49 71 0.0 1.0 0.00 0.00 0.00 88 1016.4
20260510045404 49 62 0.0 1.0 0.00 0.00 0.00 88 1016.4
20260510044906 49 67 0.0 1.0 0.00 0.00 0.00 88 1016.6
20260510044405 49 68 0.0 1.0 0.00 0.00 0.00 88 1016.5
20260510043903 48 262 0.0 1.0 0.00 0.00 0.00 88 1016.6
20260510043407 48 227 0.0 0.0 0.00 0.00 0.00 88 1016.8
20260510042902 48 226 0.0 1.0 0.00 0.00 0.00 88 1016.7
20260510041908 48 229 0.0 0.0 0.00 0.00 0.00 88 1016.6
20260510040903 48 229 0.0 1.0 0.00 0.00 0.00 88 1016.6
20260510040411 48 229 0.0 0.0 0.00 0.00 0.00 88 1016.6
20260510035837 48 229 0.0 0.0 0.00 0.00 0.00 88 1016.7
20260510034832 49 229 0.0 1.0 0.00 0.00 0.00 88 1016.7
20260510034332 49 229 0.0 1.0 0.00 0.00 0.00 88 1016.7
20260510033830 49 139 0.0 0.0 0.00 0.00 0.00 88 1016.6
20260510033331 49 139 0.0 0.0 0.00 0.00 0.00 88 1016.8
20260510032809 49 139 0.0 0.0 0.00 0.00 0.00 88 1016.8
20260510031804 49 139 0.0 0.0 0.00 0.00 0.00 87 1016.9
20260510031255 49 128 0.0 0.0 0.00 0.00 0.00 87 1016.8
20260510030234 50 120 0.0 0.0 0.00 0.00 0.00 87 1016.8
20260510025205 50 119 0.0 0.0 0.00 0.00 0.00 87 1016.7
20260510024705 50 111 0.0 0.0 0.00 0.00 0.00 87 1016.8
20260510024205 50 111 0.0 0.0 0.00 0.00 0.00 87 1016.8
20260510023708 50 153 0.0 1.0 0.00 0.00 0.00 87 1016.8
20260510023206 50 105 0.0 1.0 0.00 0.00 0.00 86 1016.8
20260510022705 50 124 0.0 2.0 0.00 0.00 0.00 86 1016.8
20260510022206 49 251 0.0 2.0 0.00 0.00 0.00 86 1016.8
20260510021705 50 250 0.0 1.0 0.00 0.00 0.00 85 1016.8
20260510021134 49 250 0.0 2.0 0.00 0.00 0.00 85 1016.8
20260510020635 49 255 0.0 2.0 0.00 0.00 0.00 85 1016.8
20260510020131 49 224 0.0 1.0 0.00 0.00 0.00 85 1016.8
20260510015627 49 224 0.0 1.0 0.00 0.00 0.00 85 1016.8
20260510015126 49 224 0.0 1.0 0.00 0.00 0.00 86 1016.9
20260510014610 49 224 0.0 2.0 0.00 0.00 0.00 86 1016.9
20260510014108 49 243 0.0 2.0 0.00 0.00 0.00 86 1017.0
20260510013607 49 294 0.0 1.0 0.00 0.00 0.00 87 1017.0
20260510013109 49 217 0.0 1.0 0.00 0.00 0.00 87 1017.0
20260510012605 49 217 0.0 1.0 0.00 0.00 0.00 88 1017.0
20260510011604 49 217 0.0 0.0 0.00 0.00 0.00 88 1017.1
20260510011107 50 217 0.0 1.0 0.00 0.00 0.00 88 1017.1
20260510010534 50 212 0.0 0.0 0.00 0.00 0.00 88 1017.1
20260510010043 50 212 0.0 0.0 0.00 0.00 0.00 88 1017.1
20260510005533 50 212 0.0 0.0 0.00 0.00 0.00 88 1017.1
20260510004516 50 212 0.0 0.0 0.00 0.00 0.00 87 1017.1
20260510004024 50 212 0.0 0.0 0.00 0.00 0.00 87 1017.2
20260510003020 50 212 0.0 1.0 0.00 0.00 0.00 87 1017.2
20260510002520 50 212 0.0 0.0 0.00 0.00 0.00 87 1017.2
20260510001519 51 212 0.0 0.0 0.00 0.00 0.00 86 1017.3
20260510001026 51 212 0.0 1.0 0.00 0.00 0.00 86 1017.4
20260510000530 51 212 0.0 1.0 0.00 0.00 0.00 86 1017.4
20260510000009 51 212 0.0 1.0 0.00 0.00 0.00 86 1017.4
20260509235518 51 212 0.0 1.0 0.00 0.00 0.00 87 1017.5
20260509235001 51 212 0.0 0.0 0.00 0.00 0.00 86 1017.6
20260509234446 51 212 0.0 1.0 0.00 0.00 0.00 87 1017.6
20260509233938 51 212 0.0 1.0 0.00 0.00 0.00 87 1017.7
20260509233431 51 212 0.0 0.0 0.00 0.00 0.00 87 1017.6
20260509232935 51 212 0.0 1.0 0.00 0.00 0.00 87 1017.6
20260509232433 51 212 0.0 1.0 0.00 0.00 0.00 87 1017.7
20260509231933 51 278 0.0 1.0 0.00 0.00 0.00 87 1017.6
20260509231432 51 277 0.0 1.0 0.00 0.00 0.00 87 1017.6
20260509230931 51 278 0.0 1.0 0.00 0.00 0.00 87 1017.5
20260509225917 51 86 0.0 0.0 0.00 0.00 0.00 87 1017.4
20260509224344 51 71 0.0 0.0 0.00 0.00 0.00 87 1017.6
20260509223331 51 71 0.0 0.0 0.00 0.00 0.00 86 1017.6
20260509222808 51 71 0.0 0.0 0.00 0.00 0.00 86 1017.7
20260509222307 51 117 0.0 0.0 0.00 0.00 0.00 86 1017.8
20260509221235 51 102 0.0 0.0 0.00 0.00 0.00 85 1017.7
20260509220735 51 102 0.0 0.0 0.00 0.00 0.00 85 1017.8
20260509220233 51 102 0.0 0.0 0.00 0.00 0.00 85 1017.8
20260509215731 51 102 0.0 0.0 0.00 0.00 0.00 85 1017.8
20260509215208 51 102 0.0 0.0 0.00 0.00 0.00 84 1017.8
20260509214143 52 102 0.0 0.0 0.00 0.00 0.00 84 1017.7
20260509213633 52 102 0.0 0.0 0.00 0.00 0.00 83 1017.7
20260509212636 52 102 0.0 0.0 0.00 0.00 0.00 82 1017.9
20260509211607 52 102 0.0 0.0 0.00 0.00 0.00 82 1018.0
20260509211109 52 102 0.0 0.0 0.00 0.00 0.00 82 1018.0
20260509210606 53 103 0.0 0.0 0.00 0.00 0.00 81 1018.0
20260509210106 53 103 0.0 0.0 0.00 0.00 0.00 81 1018.0
20260509205538 53 103 0.0 0.0 0.00 0.00 0.00 81 1017.9
20260509205033 53 96 0.0 0.0 0.00 0.00 0.00 80 1018.0
20260509204542 53 96 0.0 0.0 0.00 0.00 0.00 80 1018.0
20260509203533 54 65 0.0 0.0 0.00 0.00 0.00 79 1018.0
20260509202531 54 65 0.0 0.0 0.00 0.00 0.00 79 1018.0
20260509201536 54 65 0.0 0.0 0.00 0.00 0.00 78 1017.9
20260509201035 54 65 0.0 0.0 0.00 0.00 0.00 78 1018.0
20260509200532 55 65 0.0 0.0 0.00 0.00 0.00 77 1017.9
20260509200027 55 65 0.0 0.0 0.00 0.00 0.00 77 1017.8
20260509195521 55 73 0.0 0.0 0.00 0.00 0.00 77 1017.8
20260509195029 55 73 0.0 0.0 0.00 0.00 0.00 76 1017.7
20260509194511 55 73 0.0 0.0 0.00 0.00 0.00 76 1017.7
20260509193955 56 71 0.0 0.0 0.00 0.00 0.00 75 1017.7
20260509193451 56 71 0.0 0.0 0.00 0.00 0.00 74 1017.6
20260509192936 56 71 0.0 0.0 0.00 0.00 0.00 74 1017.6
20260509192432 56 71 0.0 0.0 0.00 0.00 0.00 74 1017.6
20260509191932 57 86 0.0 0.0 0.00 0.00 0.00 73 1017.5
20260509191430 57 56 0.0 1.0 0.00 0.00 0.00 73 1017.5
20260509190932 57 87 0.0 1.0 0.00 0.00 0.00 72 1017.5
20260509185914 58 111 0.0 1.0 0.00 0.00 0.00 71 1017.5
20260509185412 58 53 0.0 1.0 0.00 0.00 0.00 71 1017.5
20260509184911 58 354 0.0 1.0 0.00 0.00 0.00 70 1017.4
20260509184406 58 49 0.0 1.0 0.00 0.00 0.00 69 1017.4
20260509183906 59 352 0.0 1.0 0.00 0.00 0.00 68 1017.3
20260509183408 59 70 0.0 1.0 0.00 0.00 0.00 68 1017.3
20260509182337 60 271 0.0 1.0 0.00 0.00 0.00 66 1017.3
20260509181345 60 164 0.0 1.0 0.00 0.00 0.00 66 1017.3
20260509180845 60 51 0.0 1.0 0.00 0.00 0.00 66 1017.3
20260509180335 61 153 0.0 1.0 0.00 0.00 0.00 65 1017.4
20260509175836 61 82 0.0 1.0 0.00 0.00 0.00 64 1017.3
20260509175333 61 68 0.0 1.0 0.00 0.00 0.00 63 1017.3
20260509174318 62 314 0.0 1.0 0.00 0.00 0.00 62 1017.3
20260509173826 62 235 0.0 1.0 0.00 0.00 0.00 61 1017.4
20260509173317 62 39 0.0 0.0 0.00 0.00 0.00 60 1017.5
20260509172810 62 39 0.0 1.0 0.00 0.00 0.00 59 1017.4
20260509172309 62 39 0.0 1.0 0.00 0.00 0.00 57 1017.4
20260509171807 62 64 0.0 1.0 0.00 0.00 0.00 56 1017.4
20260509171235 63 44 0.0 1.0 0.00 0.00 0.00 55 1017.4
20260509170746 62 41 0.0 1.0 0.00 0.00 0.00 55 1017.3
20260509170233 62 49 0.0 1.0 0.00 0.00 0.00 57 1017.2
20260509165713 62 35 0.0 1.0 0.00 0.00 0.00 56 1017.2
20260509164709 62 41 0.0 1.0 0.00 0.00 0.00 56 1017.3
20260509164146 62 41 0.0 1.0 0.00 0.00 0.00 56 1017.3
20260509163635 62 22 0.0 2.0 0.00 0.00 0.00 56 1017.3
20260509163134 62 25 0.0 2.0 0.00 0.00 0.00 56 1017.2
20260509162623 62 70 0.0 2.0 0.00 0.00 0.00 56 1017.2
20260509161605 62 49 0.0 2.0 0.00 0.00 0.00 55 1017.2
20260509161106 62 48 0.0 2.0 0.00 0.00 0.00 55 1017.2
20260509160609 62 30 0.0 4.0 0.00 0.00 0.00 54 1017.2
20260509160109 63 56 0.0 4.0 0.00 0.00 0.00 54 1017.2
20260509155538 63 23 0.0 3.0 0.00 0.00 0.00 54 1017.2
20260509155038 62 40 0.0 1.0 0.00 0.00 0.00 54 1017.1
20260509154536 62 40 0.0 1.0 0.00 0.00 0.00 54 1017.2
20260509154040 63 45 0.0 1.0 0.00 0.00 0.00 54 1017.3